QPF
0.01 0.00 0.01 0.04 0.09 0.11 0.12 0.09 0.07 0.05 0.02 0.01 0.01 0.04 0.05 0.07 0.10 0.11 0.10 0.11 0.11 0.10 0.07 0.08 0.10 0.10 0.09 0.08 0.07 0.08 0.09 0.08 0.10 0.06 0.05 0.06 0.04 0.02 0.02 0.03 0.04 0.03 0.02 0.03 0.05 0.05 0.03 0.03 0.03
0.00 0.00 0.02 0.06 0.11 0.11 0.10 0.07 0.05 0.03 0.01 0.01 0.01 0.02 0.04 0.05 0.05 0.07 0.09 0.07 0.07 0.09 0.09 0.08 0.08 0.09 0.09 0.09 0.09 0.10 0.09 0.06 0.05 0.04 0.04 0.04 0.04 0.03 0.02 0.02 0.03 0.02 0.02 0.02 0.03 0.03 0.04 0.03 0.02
0.00 0.00 0.02 0.06 0.10 0.10 0.09 0.06 0.04 0.01 0.01 0.01 0.03 0.02 0.04 0.06 0.05 0.08 0.09 0.06 0.04 0.06 0.08 0.07 0.06 0.06 0.07 0.08 0.10 0.10 0.09 0.06 0.05 0.04 0.05 0.04 0.04 0.03 0.02 0.02 0.03 0.02 0.02 0.01 0.01 0.02 0.02 0.01 0.01
0.01 0.01 0.02 0.05 0.07 0.05 0.05 0.05 0.03 0.02 0.01 0.01 0.03 0.04 0.03 0.05 0.06 0.08 0.08 0.05 0.04 0.06 0.08 0.06 0.05 0.07 0.08 0.09 0.09 0.06 0.04 0.06 0.09 0.07 0.06 0.05 0.04 0.03 0.01 0.02 0.01 0.01 0.01 0.01 0.01 0.01 0.01 0.00 0.01
0.00 0.01 0.04 0.06 0.04 0.03 0.03 0.04 0.02 0.02 0.02 0.01 0.04 0.06 0.07 0.07 0.08 0.06 0.06 0.05 0.05 0.07 0.08 0.05 0.03 0.07 0.09 0.10 0.07 0.02 0.04 0.09 0.12 0.11 0.10 0.09 0.06 0.03 0.01 0.01 0.01 0.00 0.01 0.01 0.01 0.01 0.00 0.00 0.00
0.01 0.02 0.05 0.05 0.04 0.04 0.02 0.02 0.01 0.01 0.02 0.02 0.03 0.06 0.09 0.10 0.08 0.06 0.06 0.07 0.05 0.06 0.07 0.05 0.03 0.08 0.09 0.07 0.04 0.01 0.03 0.10 0.13 0.15 0.16 0.11 0.06 0.03 0.01 0.00 0.00 0.00 0.00 0.00 0.00 0.00 0.00 0.00 0.00
0.02 0.03 0.05 0.04 0.04 0.06 0.03 0.01 0.01 0.02 0.02 0.02 0.02 0.03 0.08 0.10 0.09 0.07 0.08 0.08 0.05 0.04 0.04 0.05 0.05 0.07 0.07 0.04 0.02 0.01 0.01 0.03 0.06 0.08 0.11 0.10 0.06 0.02 0.01 0.00 0.00 0.00 0.00 0.00 0.00 0.00 0.00 0.00 0.00
0.01 0.02 0.04 0.03 0.04 0.04 0.01 0.01 0.01 0.02 0.02 0.01 0.01 0.02 0.06 0.07 0.07 0.08 0.09 0.08 0.05 0.03 0.03 0.03 0.05 0.05 0.05 0.03 0.01 0.01 0.01 0.01 0.03 0.04 0.04 0.05 0.05 0.02 0.01 0.00 0.00 0.00 0.00 0.00 0.00 0.00 0.00 0.00 0.00
0.00 0.04 0.07 0.05 0.04 0.03 0.01 0.01 0.01 0.01 0.01 0.01 0.01 0.02 0.03 0.05 0.05 0.06 0.08 0.06 0.05 0.03 0.03 0.03 0.02 0.02 0.03 0.01 0.01 0.01 0.01 0.01 0.01 0.01 0.01 0.02 0.02 0.01 0.00 0.00 0.00 0.00 0.00 0.00 0.00 0.00 0.00 0.00 0.00
0.01 0.06 0.06 0.02 0.01 0.01 0.01 0.01 0.01 0.01 0.02 0.02 0.01 0.01 0.02 0.04 0.04 0.04 0.05 0.05 0.03 0.02 0.02 0.03 0.02 0.01 0.01 0.01 0.01 0.01 0.01 0.01 0.00 0.00 0.00 0.00 0.00 0.00 0.00 0.00 0.00 0.00 0.00 0.00 0.00 0.00 0.00 0.00 0.00
0.00 0.03 0.03 0.01 0.01 0.00 0.01 0.02 0.00 0.02 0.04 0.03 0.02 0.02 0.01 0.03 0.03 0.02 0.03 0.04 0.03 0.01 0.01 0.02 0.01 0.01 0.01 0.01 0.01 0.02 0.01 0.00 0.00 0.00 0.00 0.00 0.00 0.00 0.00 0.00 0.00 0.00 0.00 0.00 0.00 0.00 0.01 0.00 0.00
0.00 0.00 0.00 0.01 0.00 0.00 0.01 0.01 0.01 0.02 0.03 0.03 0.01 0.01 0.01 0.03 0.02 0.02 0.03 0.03 0.03 0.01 0.01 0.01 0.01 0.01 0.01 0.01 0.02 0.02 0.00 0.00 0.00 0.00 0.00 0.00 0.00 0.00 0.00 0.00 0.00 0.00 0.00 0.00 0.00 0.00 0.00 0.00 0.00
0.00 0.00 0.00 0.00 0.00 0.00 0.01 0.02 0.02 0.03 0.03 0.02 0.01 0.00 0.01 0.02 0.01 0.02 0.02 0.02 0.02 0.01 0.01 0.01 0.01 0.01 0.01 0.01 0.02 0.01 0.00 0.00 0.00 0.00 0.00 0.00 0.00 0.00 0.00 0.00 0.00 0.00 0.00 0.00 0.00 0.00 0.00 0.00 0.00
0.00 0.00 0.00 0.00 0.01 0.01 0.03 0.03 0.03 0.05 0.03 0.01 0.01 0.01 0.01 0.02 0.01 0.01 0.02 0.01 0.01 0.01 0.01 0.01 0.01 0.01 0.01 0.01 0.01 0.00 0.00 0.00 0.00 0.00 0.00 0.00 0.00 0.00 0.00 0.00 0.00 0.00 0.00 0.00 0.00 0.00 0.00 0.00 0.00
0.00 0.00 0.00 0.00 0.00 0.01 0.02 0.05 0.07 0.04 0.03 0.02 0.02 0.02 0.01 0.01 0.01 0.01 0.01 0.01 0.01 0.01 0.01 0.01 0.01 0.01 0.01 0.01 0.00 0.00 0.00 0.00 0.00 0.00 0.00 0.00 0.00 0.00 0.00 0.00 0.00 0.00 0.00 0.00 0.00 0.00 0.00 0.00 0.00
0.00 0.01 0.03 0.01 0.00 0.00 0.03 0.07 0.06 0.03 0.03 0.02 0.02 0.02 0.02 0.01 0.01 0.01 0.01 0.02 0.02 0.02 0.01 0.01 0.01 0.01 0.01 0.01 0.00 0.00 0.00 0.00 0.00 0.00 0.00 0.00 0.00 0.00 0.00 0.00 0.00 0.00 0.00 0.00 0.00 0.00 0.00 0.00 0.00
0.03 0.04 0.03 0.01 0.01 0.00 0.02 0.05 0.04 0.03 0.03 0.02 0.01 0.02 0.02 0.02 0.02 0.02 0.01 0.01 0.01 0.01 0.01 0.01 0.02 0.02 0.01 0.00 0.00 0.00 0.00 0.00 0.00 0.00 0.00 0.00 0.00 0.00 0.00 0.00 0.00 0.00 0.00 0.00 0.00 0.00 0.00 0.00 0.00
0.03 0.03 0.03 0.02 0.01 0.01 0.01 0.02 0.03 0.05 0.04 0.02 0.01 0.01 0.02 0.02 0.02 0.02 0.02 0.01 0.01 0.01 0.01 0.01 0.01 0.02 0.02 0.01 0.00 0.00 0.00 0.00 0.00 0.00 0.00 0.00 0.00 0.00 0.00 0.00 0.00 0.00 0.00 0.00 0.00 0.01 0.01 0.01 0.00
0.01 0.02 0.02 0.01 0.00 0.00 0.01 0.01 0.02 0.04 0.04 0.02 0.01 0.01 0.02 0.02 0.02 0.02 0.02 0.02 0.01 0.01 0.01 0.01 0.01 0.01 0.01 0.01 0.01 0.00 0.00 0.00 0.00 0.00 0.00 0.00 0.00 0.00 0.00 0.00 0.00 0.00 0.00 0.00 0.00 0.01 0.01 0.02 0.01
0.01 0.02 0.03 0.01 0.00 0.00 0.01 0.01 0.01 0.01 0.03 0.03 0.02 0.01 0.02 0.02 0.02 0.02 0.01 0.01 0.02 0.02 0.01 0.01 0.01 0.01 0.01 0.01 0.00 0.00 0.00 0.00 0.00 0.00 0.00 0.00 0.00 0.00 0.00 0.00 0.01 0.01 0.01 0.01 0.01 0.01 0.02 0.03 0.01
0.01 0.02 0.02 0.01 0.00 0.00 0.01 0.02 0.02 0.02 0.02 0.01 0.01 0.00 0.01 0.01 0.01 0.01 0.01 0.01 0.02 0.02 0.02 0.02 0.01 0.01 0.01 0.01 0.01 0.00 0.01 0.01 0.00 0.00 0.00 0.00 0.00 0.00 0.00 0.01 0.01 0.01 0.01 0.01 0.01 0.01 0.02 0.03 0.02
0.00 0.00 0.01 0.00 0.01 0.02 0.01 0.05 0.03 0.02 0.01 0.01 0.01 0.00 0.00 0.00 0.00 0.00 0.00 0.00 0.01 0.01 0.01 0.02 0.01 0.01 0.01 0.01 0.01 0.00 0.00 0.00 0.00 0.00 0.00 0.00 0.00 0.00 0.00 0.00 0.01 0.01 0.01 0.00 0.00 0.00 0.01 0.02 0.02
0.00 0.00 0.00 0.00 0.01 0.01 0.01 0.03 0.03 0.01 0.02 0.01 0.00 0.00 0.00 0.00 0.00 0.00 0.01 0.00 0.00 0.00 0.01 0.01 0.01 0.01 0.01 0.00 0.00 0.00 0.00 0.00 0.00 0.00 0.00 0.00 0.00 0.00 0.00 0.00 0.00 0.01 0.00 0.00 0.00 0.00 0.00 0.01 0.01
0.00 0.00 0.00 0.00 0.01 0.02 0.01 0.01 0.02 0.01 0.00 0.00 0.00 0.00 0.00 0.00 0.00 0.00 0.01 0.00 0.00 0.00 0.00 0.00 0.00 0.00 0.00 0.00 0.00 0.00 0.00 0.00 0.00 0.00 0.00 0.00 0.00 0.00 0.00 0.00 0.00 0.00 0.00 0.00 0.00 0.00 0.00 0.00 0.00
0.01 0.02 0.04 0.04 0.04 0.02 0.00 0.01 0.01 0.00 0.00 0.00 0.00 0.00 0.00 0.00 0.00 0.00 0.00 0.00 0.00 0.00 0.00 0.00 0.01 0.01 0.00 0.00 0.00 0.00 0.00 0.00 0.00 0.00 0.00 0.00 0.00 0.00 0.00 0.00 0.00 0.00 0.00 0.00 0.00 0.00 0.00 0.00 0.00
0.00 0.02 0.06 0.07 0.05 0.02 0.00 0.01 0.01 0.00 0.00 0.00 0.00 0.00 0.00 0.00 0.00 0.00 0.00 0.00 0.00 0.00 0.00 0.00 0.01 0.00 0.01 0.01 0.01 0.01 0.00 0.00 0.00 0.00 0.00 0.00 0.00 0.00 0.00 0.00 0.00 0.00 0.00 0.00 0.00 0.00 0.00 0.00 0.00
0.00 0.01 0.01 0.02 0.03 0.04 0.01 0.01 0.00 0.00 0.00 0.00 0.00 0.00 0.00 0.00 0.00 0.00 0.01 0.01 0.00 0.00 0.00 0.00 0.01 0.01 0.01 0.01 0.01 0.01 0.01 0.01 0.01 0.01 0.00 0.00 0.00 0.00 0.00 0.00 0.00 0.00 0.00 0.00 0.00 0.00 0.00 0.00 0.00
0.00 0.00 0.01 0.02 0.05 0.05 0.03 0.02 0.01 0.00 0.00 0.00 0.00 0.00 0.00 0.00 0.00 0.01 0.00 0.00 0.00 0.00 0.00 0.01 0.01 0.01 0.01 0.02 0.01 0.00 0.01 0.01 0.02 0.02 0.01 0.00 0.00 0.00 0.00 0.00 0.00 0.00 0.00 0.00 0.00 0.00 0.00 0.00 0.00
0.00 0.00 0.01 0.01 0.02 0.05 0.06 0.04 0.01 0.00 0.00 0.00 0.00 0.00 0.00 0.00 0.00 0.00 0.00 0.00 0.00 0.00 0.00 0.00 0.01 0.01 0.01 0.01 0.01 0.01 0.00 0.00 0.00 0.01 0.01 0.00 0.00 0.00 0.00 0.00 0.00 0.00 0.00 0.00 0.00 0.00 0.00 0.00 0.00
0.00 0.00 0.01 0.03 0.03 0.03 0.04 0.03 0.00 0.00 0.00 0.00 0.00 0.00 0.00 0.00 0.00 0.00 0.00 0.00 0.00 0.01 0.00 0.00 0.00 0.00 0.01 0.01 0.01 0.01 0.01 0.00 0.00 0.00 0.00 0.00 0.00 0.00 0.00 0.00 0.00 0.00 0.00 0.00 0.00 0.00 0.00 0.00 0.00
MSLP
1007.75 1008.53 1009.56 1010.74 1011.99 1013.20 1014.28 1015.18 1015.87 1016.33 1016.62 1016.80 1016.91 1016.99 1017.07 1017.14 1017.16 1017.10 1016.94 1016.68 1016.34 1015.97 1015.61 1015.34 1015.18 1015.14 1015.20 1015.31 1015.42 1015.50 1015.51 1015.47 1015.40 1015.35 1015.33 1015.38 1015.48 1015.61 1015.74 1015.82 1015.83 1015.77 1015.65 1015.51 1015.39 1015.30 1015.26 1015.28 1015.34
1008.05 1008.99 1010.12 1011.35 1012.59 1013.77 1014.81 1015.67 1016.34 1016.82 1017.17 1017.40 1017.57 1017.68 1017.75 1017.75 1017.66 1017.47 1017.18 1016.81 1016.39 1016.00 1015.68 1015.48 1015.41 1015.45 1015.58 1015.73 1015.86 1015.93 1015.92 1015.86 1015.77 1015.71 1015.69 1015.74 1015.83 1015.95 1016.06 1016.11 1016.09 1016.01 1015.88 1015.73 1015.59 1015.50 1015.46 1015.48 1015.53
1008.50 1009.56 1010.74 1011.97 1013.15 1014.24 1015.18 1015.96 1016.59 1017.09 1017.47 1017.78 1018.01 1018.17 1018.24 1018.19 1018.01 1017.71 1017.31 1016.84 1016.38 1015.98 1015.70 1015.56 1015.58 1015.71 1015.90 1016.10 1016.24 1016.30 1016.28 1016.20 1016.09 1016.01 1015.98 1016.01 1016.10 1016.20 1016.29 1016.33 1016.30 1016.22 1016.09 1015.96 1015.84 1015.76 1015.73 1015.74 1015.79
1009.06 1010.18 1011.36 1012.52 1013.58 1014.53 1015.33 1016.01 1016.58 1017.08 1017.52 1017.90 1018.21 1018.43 1018.51 1018.45 1018.21 1017.82 1017.33 1016.79 1016.30 1015.91 1015.67 1015.61 1015.71 1015.92 1016.17 1016.40 1016.55 1016.61 1016.57 1016.46 1016.34 1016.23 1016.19 1016.20 1016.27 1016.36 1016.44 1016.48 1016.47 1016.41 1016.32 1016.22 1016.14 1016.08 1016.07 1016.08 1016.12
1009.66 1010.78 1011.90 1012.92 1013.83 1014.59 1015.23 1015.79 1016.31 1016.81 1017.30 1017.77 1018.17 1018.46 1018.59 1018.52 1018.25 1017.81 1017.26 1016.69 1016.18 1015.80 1015.61 1015.62 1015.79 1016.06 1016.36 1016.61 1016.77 1016.82 1016.76 1016.63 1016.49 1016.37 1016.31 1016.32 1016.38 1016.47 1016.55 1016.61 1016.62 1016.60 1016.56 1016.51 1016.47 1016.46 1016.46 1016.48 1016.51
1010.23 1011.30 1012.29 1013.15 1013.86 1014.43 1014.91 1015.35 1015.81 1016.32 1016.88 1017.44 1017.94 1018.32 1018.50 1018.46 1018.18 1017.71 1017.14 1016.55 1016.04 1015.69 1015.55 1015.60 1015.83 1016.14 1016.46 1016.72 1016.88 1016.91 1016.83 1016.70 1016.55 1016.43 1016.37 1016.38 1016.44 1016.53 1016.63 1016.70 1016.75 1016.77 1016.78 1016.78 1016.80 1016.82 1016.85 1016.87 1016.88
1010.74 1011.70 1012.54 1013.21 1013.72 1014.10 1014.43 1014.78 1015.20 1015.73 1016.35 1016.99 1017.59 1018.05 1018.30 1018.29 1018.03 1017.56 1016.98 1016.40 1015.91 1015.59 1015.48 1015.57 1015.83 1016.15 1016.48 1016.73 1016.86 1016.88 1016.80 1016.66 1016.52 1016.41 1016.37 1016.40 1016.47 1016.58 1016.68 1016.77 1016.84 1016.90 1016.95 1017.00 1017.05 1017.11 1017.15 1017.18 1017.18
1011.16 1012.01 1012.69 1013.18 1013.50 1013.72 1013.92 1014.19 1014.59 1015.14 1015.82 1016.54 1017.22 1017.75 1018.05 1018.08 1017.84 1017.39 1016.83 1016.27 1015.80 1015.52 1015.44 1015.55 1015.80 1016.12 1016.42 1016.64 1016.75 1016.75 1016.66 1016.53 1016.42 1016.35 1016.34 1016.40 1016.50 1016.61 1016.73 1016.82 1016.90 1016.97 1017.03 1017.11 1017.19 1017.27 1017.33 1017.37 1017.37
1011.54 1012.27 1012.81 1013.14 1013.32 1013.41 1013.52 1013.74 1014.12 1014.69 1015.40 1016.16 1016.89 1017.46 1017.79 1017.85 1017.64 1017.22 1016.69 1016.16 1015.74 1015.48 1015.42 1015.54 1015.78 1016.06 1016.32 1016.49 1016.57 1016.54 1016.46 1016.35 1016.27 1016.25 1016.29 1016.39 1016.51 1016.64 1016.76 1016.84 1016.91 1016.97 1017.03 1017.11 1017.20 1017.29 1017.38 1017.43 1017.44
1011.91 1012.55 1012.99 1013.21 1013.29 1013.30 1013.35 1013.52 1013.89 1014.44 1015.15 1015.92 1016.65 1017.22 1017.56 1017.62 1017.43 1017.04 1016.56 1016.08 1015.71 1015.49 1015.45 1015.56 1015.77 1016.01 1016.20 1016.32 1016.35 1016.31 1016.22 1016.14 1016.11 1016.14 1016.24 1016.38 1016.53 1016.67 1016.78 1016.84 1016.88 1016.92 1016.96 1017.02 1017.12 1017.22 1017.33 1017.41 1017.46
1012.32 1012.92 1013.29 1013.46 1013.48 1013.45 1013.46 1013.61 1013.93 1014.46 1015.12 1015.84 1016.51 1017.03 1017.34 1017.39 1017.21 1016.86 1016.43 1016.01 1015.70 1015.52 1015.51 1015.61 1015.79 1015.98 1016.12 1016.18 1016.17 1016.10 1016.01 1015.96 1015.97 1016.05 1016.19 1016.37 1016.55 1016.70 1016.80 1016.84 1016.85 1016.85 1016.86 1016.92 1017.01 1017.13 1017.27 1017.39 1017.49
1012.82 1013.40 1013.75 1013.90 1013.90 1013.86 1013.86 1013.97 1014.26 1014.70 1015.28 1015.89 1016.45 1016.88 1017.12 1017.14 1016.95 1016.64 1016.27 1015.93 1015.68 1015.57 1015.58 1015.70 1015.86 1016.00 1016.09 1016.11 1016.06 1015.97 1015.88 1015.84 1015.88 1016.00 1016.18 1016.39 1016.59 1016.75 1016.84 1016.86 1016.84 1016.82 1016.81 1016.86 1016.96 1017.11 1017.29 1017.47 1017.63
1013.39 1013.97 1014.33 1014.50 1014.52 1014.49 1014.48 1014.56 1014.77 1015.12 1015.56 1016.03 1016.45 1016.74 1016.88 1016.85 1016.65 1016.37 1016.06 1015.80 1015.64 1015.59 1015.65 1015.79 1015.95 1016.08 1016.15 1016.14 1016.06 1015.96 1015.87 1015.85 1015.90 1016.04 1016.23 1016.46 1016.66 1016.82 1016.91 1016.92 1016.90 1016.87 1016.86 1016.92 1017.04 1017.22 1017.45 1017.70 1017.92
1014.01 1014.60 1014.98 1015.17 1015.23 1015.22 1015.20 1015.25 1015.38 1015.61 1015.89 1016.19 1016.43 1016.58 1016.61 1016.51 1016.30 1016.05 1015.80 1015.62 1015.54 1015.58 1015.70 1015.88 1016.07 1016.21 1016.29 1016.28 1016.21 1016.11 1016.03 1016.00 1016.05 1016.19 1016.38 1016.59 1016.79 1016.94 1017.03 1017.05 1017.04 1017.02 1017.04 1017.12 1017.27 1017.50 1017.78 1018.09 1018.38
1014.61 1015.20 1015.59 1015.81 1015.90 1015.91 1015.90 1015.91 1015.96 1016.06 1016.18 1016.31 1016.38 1016.39 1016.30 1016.14 1015.92 1015.69 1015.51 1015.41 1015.41 1015.52 1015.71 1015.95 1016.19 1016.38 1016.49 1016.52 1016.48 1016.41 1016.34 1016.32 1016.36 1016.47 1016.63 1016.81 1016.99 1017.13 1017.22 1017.26 1017.27 1017.28 1017.34 1017.45 1017.65 1017.92 1018.24 1018.59 1018.93
1015.14 1015.68 1016.07 1016.31 1016.43 1016.47 1016.46 1016.44 1016.42 1016.40 1016.38 1016.35 1016.27 1016.15 1015.97 1015.76 1015.54 1015.35 1015.22 1015.18 1015.25 1015.43 1015.69 1015.99 1016.29 1016.54 1016.73 1016.83 1016.85 1016.83 1016.80 1016.78 1016.80 1016.87 1016.99 1017.12 1017.26 1017.38 1017.46 1017.52 1017.56 1017.62 1017.71 1017.87 1018.09 1018.39 1018.75 1019.12 1019.50
1015.52 1016.00 1016.36 1016.61 1016.76 1016.82 1016.83 1016.78 1016.70 1016.59 1016.46 1016.29 1016.10 1015.89 1015.65 1015.42 1015.21 1015.05 1014.97 1014.99 1015.12 1015.35 1015.66 1016.01 1016.37 1016.70 1016.97 1017.16 1017.27 1017.33 1017.34 1017.34 1017.35 1017.38 1017.44 1017.51 1017.60 1017.68 1017.75 1017.82 1017.89 1017.98 1018.11 1018.29 1018.54 1018.85 1019.21 1019.59 1019.97
1015.75 1016.14 1016.46 1016.71 1016.88 1016.97 1016.99 1016.93 1016.81 1016.63 1016.41 1016.15 1015.88 1015.61 1015.36 1015.13 1014.96 1014.85 1014.83 1014.89 1015.05 1015.31 1015.64 1016.02 1016.43 1016.82 1017.17 1017.46 1017.68 1017.82 1017.90 1017.93 1017.94 1017.93 1017.93 1017.95 1017.97 1018.01 1018.07 1018.14 1018.22 1018.34 1018.48 1018.68 1018.92 1019.22 1019.55 1019.92 1020.29
1015.83 1016.14 1016.42 1016.66 1016.85 1016.97 1017.00 1016.94 1016.78 1016.54 1016.25 1015.93 1015.62 1015.33 1015.10 1014.92 1014.81 1014.77 1014.80 1014.91 1015.09 1015.35 1015.68 1016.06 1016.48 1016.91 1017.33 1017.70 1018.02 1018.25 1018.40 1018.48 1018.49 1018.47 1018.42 1018.38 1018.35 1018.35 1018.38 1018.44 1018.53 1018.65 1018.80 1018.98 1019.20 1019.46 1019.76 1020.08 1020.43
1015.80 1016.05 1016.30 1016.55 1016.77 1016.91 1016.95 1016.87 1016.67 1016.38 1016.02 1015.66 1015.32 1015.05 1014.86 1014.75 1014.74 1014.79 1014.90 1015.05 1015.25 1015.49 1015.79 1016.14 1016.54 1016.97 1017.42 1017.85 1018.23 1018.54 1018.77 1018.90 1018.94 1018.91 1018.85 1018.77 1018.70 1018.66 1018.67 1018.71 1018.80 1018.91 1019.05 1019.21 1019.38 1019.59 1019.83 1020.10 1020.41
1015.75 1015.96 1016.22 1016.50 1016.74 1016.91 1016.94 1016.82 1016.56 1016.19 1015.76 1015.33 1014.98 1014.72 1014.60 1014.60 1014.70 1014.87 1015.07 1015.29 1015.51 1015.74 1015.99 1016.27 1016.61 1017.00 1017.43 1017.88 1018.30 1018.67 1018.95 1019.14 1019.21 1019.21 1019.14 1019.06 1018.97 1018.92 1018.91 1018.95 1019.03 1019.14 1019.25 1019.37 1019.50 1019.64 1019.81 1020.02 1020.29
1015.74 1015.96 1016.26 1016.59 1016.87 1017.04 1017.05 1016.86 1016.51 1016.02 1015.48 1014.98 1014.58 1014.35 1014.28 1014.39 1014.63 1014.93 1015.26 1015.56 1015.82 1016.04 1016.24 1016.45 1016.70 1017.02 1017.39 1017.80 1018.22 1018.61 1018.93 1019.16 1019.29 1019.32 1019.28 1019.21 1019.15 1019.10 1019.11 1019.15 1019.23 1019.33 1019.43 1019.52 1019.60 1019.68 1019.78 1019.93 1020.14
1015.82 1016.10 1016.47 1016.86 1017.18 1017.35 1017.31 1017.03 1016.54 1015.90 1015.22 1014.61 1014.14 1013.89 1013.88 1014.08 1014.45 1014.91 1015.37 1015.78 1016.11 1016.34 1016.51 1016.64 1016.80 1017.01 1017.29 1017.63 1018.01 1018.39 1018.73 1018.99 1019.16 1019.24 1019.26 1019.24 1019.21 1019.20 1019.24 1019.31 1019.41 1019.51 1019.60 1019.67 1019.71 1019.75 1019.79 1019.88 1020.03
1016.00 1016.38 1016.84 1017.31 1017.67 1017.82 1017.71 1017.32 1016.67 1015.86 1015.00 1014.23 1013.66 1013.36 1013.37 1013.65 1014.14 1014.74 1015.34 1015.88 1016.28 1016.55 1016.71 1016.79 1016.86 1016.96 1017.14 1017.39 1017.71 1018.05 1018.38 1018.67 1018.88 1019.02 1019.09 1019.14 1019.17 1019.22 1019.30 1019.42 1019.55 1019.68 1019.78 1019.85 1019.87 1019.87 1019.87 1019.90 1020.00
1016.26 1016.75 1017.32 1017.86 1018.25 1018.39 1018.21 1017.69 1016.87 1015.87 1014.82 1013.88 1013.18 1012.80 1012.78 1013.10 1013.67 1014.39 1015.12 1015.78 1016.28 1016.61 1016.78 1016.84 1016.84 1016.87 1016.95 1017.11 1017.35 1017.65 1017.96 1018.25 1018.50 1018.69 1018.83 1018.94 1019.05 1019.17 1019.31 1019.48 1019.66 1019.82 1019.95 1020.03 1020.06 1020.04 1020.01 1020.01 1020.06
1016.54 1017.14 1017.80 1018.41 1018.83 1018.95 1018.70 1018.06 1017.10 1015.92 1014.69 1013.58 1012.73 1012.25 1012.18 1012.48 1013.09 1013.88 1014.71 1015.46 1016.06 1016.46 1016.67 1016.74 1016.72 1016.69 1016.71 1016.80 1016.98 1017.23 1017.52 1017.82 1018.09 1018.33 1018.53 1018.71 1018.88 1019.07 1019.27 1019.50 1019.72 1019.93 1020.09 1020.20 1020.25 1020.24 1020.21 1020.18 1020.19
1016.76 1017.45 1018.19 1018.84 1019.28 1019.38 1019.08 1018.36 1017.29 1015.98 1014.62 1013.36 1012.38 1011.79 1011.62 1011.87 1012.46 1013.26 1014.13 1014.94 1015.61 1016.08 1016.35 1016.45 1016.45 1016.41 1016.41 1016.47 1016.62 1016.84 1017.12 1017.42 1017.72 1017.99 1018.24 1018.48 1018.71 1018.94 1019.20 1019.47 1019.73 1019.98 1020.18 1020.33 1020.41 1020.43 1020.41 1020.38 1020.37
1016.87 1017.60 1018.37 1019.04 1019.48 1019.57 1019.25 1018.50 1017.38 1016.02 1014.58 1013.24 1012.17 1011.47 1011.20 1011.36 1011.87 1012.62 1013.46 1014.28 1014.98 1015.50 1015.82 1015.98 1016.02 1016.03 1016.05 1016.12 1016.27 1016.50 1016.79 1017.10 1017.42 1017.72 1018.01 1018.28 1018.55 1018.82 1019.10 1019.40 1019.69 1019.97 1020.20 1020.39 1020.51 1020.57 1020.59 1020.58 1020.57
1016.81 1017.54 1018.29 1018.94 1019.36 1019.44 1019.12 1018.39 1017.30 1015.97 1014.55 1013.21 1012.10 1011.34 1010.99 1011.03 1011.42 1012.05 1012.81 1013.57 1014.24 1014.76 1015.12 1015.34 1015.46 1015.53 1015.61 1015.74 1015.94 1016.20 1016.52 1016.86 1017.20 1017.54 1017.85 1018.14 1018.42 1018.71 1019.00 1019.30 1019.60 1019.89 1020.16 1020.37 1020.54 1020.65 1020.72 1020.75 1020.77
1016.60 1017.27 1017.95 1018.52 1018.89 1018.96 1018.67 1018.01 1017.02 1015.81 1014.50 1013.25 1012.19 1011.41 1010.99 1010.93 1011.18 1011.66 1012.26 1012.90 1013.49 1013.98 1014.35 1014.61 1014.79 1014.95 1015.12 1015.33 1015.60 1015.93 1016.29 1016.67 1017.05 1017.40 1017.74 1018.04 1018.33 1018.61 1018.90 1019.19 1019.48 1019.77 1020.04 1020.29 1020.49 1020.65 1020.78 1020.86 1020.93
Thickness
5794 5798 5798 5786 5764 5750 5746 5755 5764 5765 5768 5776 5780 5776 5766 5758 5750 5739 5759 5771 5773 5771 5769 5768 5769 5769 5770 5770 5769 5769 5769 5768 5768 5767 5767 5766 5766 5766 5767 5767 5767 5767 5767 5768 5768 5769 5769 5770 5769
5796 5799 5790 5773 5751 5738 5740 5755 5756 5762 5771 5778 5777 5773 5765 5758 5761 5758 5762 5769 5771 5770 5767 5766 5766 5766 5766 5766 5767 5766 5766 5766 5766 5765 5765 5765 5765 5765 5765 5766 5765 5765 5765 5766 5766 5767 5767 5767 5767
5795 5795 5777 5762 5750 5742 5740 5754 5758 5766 5774 5775 5770 5768 5759 5753 5758 5759 5765 5770 5769 5767 5765 5763 5763 5764 5764 5764 5764 5764 5764 5764 5764 5764 5763 5763 5763 5764 5764 5764 5764 5763 5764 5764 5764 5765 5765 5765 5765
5791 5782 5772 5754 5744 5752 5755 5759 5764 5763 5768 5772 5767 5756 5753 5759 5760 5762 5768 5769 5767 5765 5762 5761 5761 5761 5761 5761 5761 5762 5761 5761 5762 5762 5761 5761 5762 5762 5762 5762 5762 5762 5762 5762 5762 5763 5763 5763 5763
5787 5769 5751 5742 5745 5756 5764 5767 5767 5759 5759 5763 5760 5746 5743 5755 5762 5765 5766 5767 5765 5763 5761 5760 5759 5759 5759 5759 5759 5759 5759 5759 5760 5760 5760 5760 5760 5761 5761 5760 5760 5760 5760 5760 5760 5761 5761 5761 5762
5769 5762 5741 5732 5741 5752 5761 5767 5765 5758 5757 5758 5753 5744 5739 5753 5757 5760 5764 5764 5764 5762 5760 5759 5758 5757 5757 5757 5757 5757 5757 5757 5758 5758 5758 5759 5759 5759 5759 5759 5758 5758 5758 5758 5759 5759 5759 5759 5760
5760 5752 5739 5738 5737 5742 5755 5765 5759 5755 5753 5755 5756 5741 5739 5748 5755 5760 5762 5762 5762 5762 5760 5758 5757 5756 5756 5756 5756 5756 5756 5756 5756 5757 5758 5758 5758 5758 5757 5757 5757 5757 5757 5757 5757 5757 5757 5757 5758
5768 5753 5740 5739 5736 5738 5755 5761 5760 5755 5751 5761 5760 5741 5734 5745 5755 5758 5759 5759 5760 5761 5761 5760 5759 5757 5756 5755 5755 5755 5755 5755 5756 5757 5758 5758 5757 5757 5756 5756 5756 5755 5755 5755 5755 5755 5755 5755 5756
5770 5743 5732 5736 5737 5740 5753 5752 5756 5761 5755 5756 5756 5751 5747 5751 5754 5753 5752 5752 5755 5757 5760 5760 5760 5758 5757 5757 5755 5755 5755 5756 5756 5757 5758 5758 5757 5757 5756 5755 5755 5754 5754 5754 5754 5754 5754 5754 5754
5758 5735 5737 5749 5750 5748 5751 5750 5753 5750 5744 5743 5744 5746 5749 5749 5748 5747 5746 5746 5748 5751 5756 5759 5759 5759 5758 5758 5756 5756 5756 5756 5757 5758 5759 5759 5759 5758 5756 5755 5754 5754 5753 5753 5753 5753 5753 5752 5752
5756 5741 5747 5752 5756 5754 5749 5750 5754 5745 5734 5738 5737 5739 5743 5744 5744 5744 5745 5746 5748 5750 5753 5756 5758 5758 5757 5756 5756 5756 5757 5757 5758 5758 5758 5758 5758 5757 5756 5754 5753 5753 5752 5752 5752 5752 5752 5752 5752
5751 5749 5752 5751 5755 5753 5748 5748 5746 5743 5740 5747 5747 5745 5743 5741 5742 5743 5744 5745 5747 5748 5750 5754 5756 5757 5756 5755 5755 5755 5755 5756 5756 5756 5756 5756 5755 5756 5755 5754 5753 5752 5752 5752 5751 5751 5751 5751 5750
5746 5746 5751 5752 5752 5751 5749 5743 5740 5739 5747 5749 5747 5744 5742 5742 5743 5745 5746 5747 5747 5746 5748 5751 5754 5754 5754 5754 5754 5753 5752 5753 5753 5754 5755 5754 5754 5753 5753 5751 5750 5750 5750 5749 5749 5748 5747 5746 5745
5746 5746 5746 5748 5747 5747 5741 5739 5738 5736 5745 5743 5741 5739 5741 5741 5743 5743 5744 5744 5745 5746 5747 5749 5751 5752 5752 5751 5751 5750 5750 5750 5750 5751 5753 5753 5752 5752 5750 5749 5748 5748 5747 5747 5746 5745 5744 5742 5741
5749 5739 5736 5740 5743 5744 5740 5727 5731 5739 5743 5738 5737 5737 5738 5740 5742 5742 5743 5744 5746 5746 5747 5747 5749 5750 5750 5748 5748 5748 5749 5748 5748 5749 5750 5751 5750 5750 5749 5747 5746 5746 5745 5744 5743 5742 5740 5739 5737
5740 5729 5718 5732 5740 5742 5731 5712 5730 5741 5739 5735 5734 5734 5734 5737 5740 5742 5744 5745 5746 5746 5745 5746 5748 5747 5746 5746 5746 5746 5746 5746 5746 5746 5747 5748 5748 5747 5746 5745 5744 5743 5742 5741 5739 5737 5735 5733 5731
5724 5713 5715 5725 5740 5740 5731 5716 5730 5740 5738 5733 5734 5733 5733 5734 5737 5741 5744 5745 5745 5745 5744 5743 5744 5743 5743 5743 5743 5744 5743 5744 5743 5743 5744 5745 5745 5745 5743 5742 5741 5740 5738 5737 5736 5733 5731 5728 5727
5715 5718 5720 5722 5735 5736 5727 5723 5730 5738 5737 5735 5735 5734 5733 5733 5735 5740 5742 5743 5744 5745 5744 5742 5741 5741 5740 5741 5741 5740 5740 5741 5741 5740 5740 5741 5741 5741 5740 5740 5739 5737 5734 5733 5732 5729 5728 5725 5724
5730 5724 5723 5729 5741 5734 5727 5725 5729 5735 5735 5735 5735 5735 5734 5735 5739 5741 5742 5742 5742 5742 5741 5739 5738 5738 5737 5736 5735 5734 5734 5736 5737 5737 5737 5737 5738 5737 5737 5737 5735 5734 5731 5729 5729 5726 5724 5722 5722
5729 5721 5722 5731 5741 5735 5728 5727 5734 5736 5737 5738 5738 5737 5737 5736 5737 5737 5739 5740 5740 5739 5739 5738 5737 5736 5735 5734 5735 5735 5734 5734 5734 5734 5734 5735 5735 5734 5735 5734 5732 5731 5728 5727 5725 5723 5719 5719 5719
5726 5724 5725 5725 5733 5737 5728 5720 5729 5736 5741 5742 5744 5742 5742 5739 5737 5736 5737 5737 5738 5737 5736 5737 5736 5735 5734 5734 5734 5733 5731 5731 5730 5730 5731 5732 5732 5731 5731 5731 5730 5728 5727 5724 5723 5721 5717 5713 5715
5722 5736 5735 5730 5721 5717 5725 5704 5723 5733 5733 5738 5741 5742 5741 5741 5740 5738 5736 5736 5736 5736 5737 5737 5735 5734 5733 5733 5731 5729 5726 5725 5727 5728 5729 5730 5730 5729 5729 5728 5727 5726 5724 5722 5721 5720 5718 5714 5710
5733 5742 5738 5733 5724 5719 5726 5713 5721 5734 5727 5733 5740 5743 5744 5743 5743 5740 5738 5737 5737 5737 5736 5736 5735 5733 5733 5732 5730 5729 5727 5727 5728 5728 5728 5728 5727 5727 5726 5726 5725 5723 5722 5720 5719 5717 5716 5714 5710
5742 5738 5735 5733 5724 5704 5724 5717 5717 5732 5737 5739 5742 5745 5745 5745 5745 5743 5741 5739 5737 5736 5735 5734 5733 5731 5732 5731 5730 5728 5727 5727 5726 5725 5725 5724 5724 5725 5724 5724 5722 5721 5719 5718 5716 5715 5713 5712 5710
5736 5718 5700 5698 5698 5707 5736 5727 5728 5748 5756 5752 5748 5748 5749 5748 5745 5742 5740 5737 5734 5734 5732 5732 5731 5729 5731 5731 5730 5729 5728 5727 5725 5725 5724 5723 5722 5721 5721 5721 5720 5718 5717 5716 5714 5713 5711 5709 5707
5730 5722 5698 5689 5696 5714 5733 5726 5740 5759 5763 5763 5758 5754 5751 5748 5746 5743 5741 5738 5735 5734 5732 5731 5730 5729 5730 5729 5729 5730 5729 5727 5726 5726 5725 5723 5721 5720 5720 5719 5717 5716 5715 5713 5712 5710 5708 5707 5705
5727 5725 5733 5718 5716 5707 5720 5734 5744 5758 5756 5756 5755 5752 5749 5748 5747 5744 5742 5740 5737 5734 5732 5732 5730 5728 5728 5728 5729 5729 5728 5726 5725 5725 5724 5723 5721 5720 5718 5717 5715 5713 5712 5711 5709 5706 5705 5703 5702
5739 5735 5725 5713 5697 5693 5711 5722 5724 5736 5742 5748 5749 5748 5748 5749 5747 5745 5743 5741 5739 5736 5734 5733 5731 5729 5728 5728 5728 5727 5726 5726 5725 5724 5722 5720 5719 5718 5716 5714 5713 5711 5709 5708 5706 5704 5702 5700 5698
5730 5728 5725 5722 5717 5698 5693 5708 5743 5741 5745 5745 5748 5749 5748 5748 5747 5745 5743 5742 5740 5738 5735 5733 5731 5729 5728 5728 5727 5726 5724 5724 5723 5721 5720 5718 5717 5715 5714 5712 5710 5708 5706 5705 5703 5701 5699 5697 5695
5738 5733 5727 5709 5708 5715 5703 5708 5750 5750 5751 5750 5749 5750 5751 5749 5749 5747 5744 5742 5739 5737 5735 5733 5732 5730 5729 5728 5726 5724 5723 5722 5720 5718 5718 5717 5715 5713 5712 5710 5708 5706 5704 5702 5700 5698 5696 5694 5691